Skip Page Navigation
NASA JPL Caltech
NASA Logo - Jet Propulsion Laboratory + View the NASA Portal
+ Center for Near-Earth Object Studies
JPL Home Earth Solar System Stars & Galaxies Technology
JPL Solar System Dynamics
BODIES ORBITS EPHEMERIDES TOOLS PHYSICAL DATA DISCOVERY FAQ SITE MAP
IMPORTANT: The SSD Announcement email list is now available. Major changes are coming in the near future, including possible hostname and/or URL changes. To be notified of such changes, subscribe to this email list.

Please visit this page for more details.


JPL Small-Body Database Browser
Search: [ help ]  
277599 (2006 AZ36)
Classification: Main-belt Asteroid          SPK-ID: 2277599
Ephemeris | Orbit Diagram | Orbital Elements | Mission Design | Physical Parameters | Discovery Circumstances ]

[ show orbit diagram ]
Orbital Elements at Epoch 2458600.5 (2019-Apr-27.0) TDB
Reference: JPL 10 (heliocentric ecliptic J2000)
 Element Value Uncertainty (1-sigma)   Units 
e .1120193979490247 7.0755e-08  
a 2.665674622684523 2.5922e-08 au
q 2.367067356323409 1.9246e-07 au
i 2.428911743252534 9.2381e-06 deg
node 334.1368039016692 0.00012299 deg
peri 61.85988563080362 0.0001326 deg
M 93.58138400203362 4.466e-05 deg
tp 2458187.265953340799
(2018-Mar-09.76595334)
0.00019658 TDB
period 1589.677887154133
4.35
2.3188e-05
6.349e-08
d
yr
n .2264609723196678 3.3033e-09 deg/d
Q 2.964281889045636 2.8826e-08 au
  Orbit Determination Parameters
   # obs. used (total)      175  
   data-arc span      6205 days (16.99 yr)  
   first obs. used      2002-02-09  
   last obs. used      2019-02-05  
   planetary ephem.      DE431  
   SB-pert. ephem.      SB431-N16  
   condition code      0  
   norm. resid. RMS      .57878  
   source      ORB  
   producer      Otto Matic  
   solution date      2019-Jul-14 06:24:27  

Additional Information
 Earth MOID = 1.37434 au 
 Jupiter MOID = 2.43502 au 
 T_jup = 3.373 
[ show covariance matrix ]

Ephemeris | Orbit Diagram | Orbital Elements | Mission Design | Physical Parameters | Discovery Circumstances ]

Physical Parameter Table
Parameter Symbol Value Units Sigma Reference Notes
absolute magnitude H 16.8   n/a MPO418475  

277599 (2006 AZ36)          Discovered 2006-Jan-04 by Spacewatch at Kitt Peak
Reference: 20110517/Numbers.arcLast Updated: 2011-05-20
Ephemeris | Orbit Diagram | Orbital Elements | Mission Design | Physical Parameters | Discovery Circumstances ]
ABOUT SSD CREDITS/AWARDS PRIVACY/COPYRIGHT GLOSSARY LINKS
FirstGov 2019-Dec-15 03:09 UT
(server date/time)  
NASA Home Page
Site Manager:   Ryan S. Park
Webmaster  Alan B. Chamberlin